Find OAO 1

NORAD ID: 2142 Int'l Des: 1966-031 Owner: GSFC Country: US operational
LEOCIRCULAR

当前视图

正在加载3D地球...

关于 OAO 1

正在加载描述...

即将过境

Passes for default location (London). Set your location on the main map for personalized predictions.

高度历史

Loading altitude history...

两行轨道根数

1 2142U 66031A 26150.15558384 .00000103 00000-0 42700-4 0 9999
2 2142 35.0462 68.8208 0006771 160.2861 199.8089 14.34691532148496
Epoch: May 30, 2026 • Age: 7 hours

当前状态

高度 772.6 km
速度 7.47 km/s
星下点 30.87°N, 136.87°E
类型 other

Most Searched